FW8288 Weather Reports


Display with metric or nautical units.
time (UTC)temp
F
wind
direction
speed
MPH
gust
MPH
rain 1hr
in
rain 24hr
in
rain mn
in
humidity
%
barometer
mb
20260510163105 83 164 2.0 6.0 0.00 0.77 0.00 72 1015.2
20260510161558 82 164 1.0 5.0 0.00 0.77 0.00 75 1015.2
20260510160132 82 164 3.0 6.0 0.00 0.77 0.00 74 1015.4
20260510154607 82 163 1.0 4.0 0.00 0.77 0.00 76 1015.6
20260510153058 81 163 2.0 4.0 0.00 0.77 0.00 77 1015.7
20260510151558 81 163 2.0 4.0 0.00 0.77 0.00 79 1015.8
20260510144616 79 163 2.0 5.0 0.00 0.77 0.00 82 1015.6
20260510143058 78 163 2.0 4.0 0.00 0.77 0.00 86 1015.7
20260510141559 77 163 2.0 5.0 0.00 0.77 0.00 89 1015.6
20260510140059 76 163 1.0 4.0 0.00 0.77 0.00 89 1015.4
20260510134558 76 164 1.0 4.0 0.00 0.77 0.00 90 1015.3
20260510133058 76 163 1.0 3.0 0.00 0.77 0.00 90 1015.2
20260510131559 75 0 1.0 3.0 0.00 0.77 0.00 91 1015.0
20260510130057 75 0 0.0 1.0 0.00 0.77 0.00 92 1014.6
20260510124611 74 0 0.0 0.0 0.00 0.77 0.00 93 1014.3
20260510123055 74 0 0.0 0.0 0.00 0.77 0.00 93 1014.0
20260510121559 74 0 0.0 0.0 0.00 0.77 0.00 93 1013.5
20260510120057 74 0 0.0 0.0 0.00 0.77 0.00 93 1013.2
20260510114600 74 0 0.0 0.0 0.00 0.77 0.00 93 1012.9
20260510113104 74 0 0.0 0.0 0.00 0.77 0.00 93 1012.6
20260510111558 74 0 0.0 2.0 0.00 0.77 0.00 93 1012.4
20260510110058 74 0 0.0 2.0 0.00 0.77 0.00 93 1012.3
20260510104604 74 0 0.0 1.0 0.00 0.77 0.00 92 1012.1
20260510103100 74 163 0.0 4.0 0.00 0.77 0.00 93 1012.0
20260510101601 74 163 1.0 5.0 0.00 0.77 0.00 93 1012.0
20260510100059 74 163 1.0 4.0 0.00 0.77 0.00 93 1011.8
20260510094611 74 163 2.0 5.0 0.00 0.77 0.00 93 1011.8
20260510093120 74 163 1.0 3.0 0.00 0.77 0.00 94 1011.8
20260510091600 73 0 0.0 0.0 0.00 0.77 0.00 94 1012.0
20260510090100 73 0 0.0 0.0 0.00 0.77 0.00 93 1012.1
20260510084605 73 0 0.0 1.0 0.00 0.77 0.00 93 1012.2
20260510083101 73 0 0.0 0.0 0.00 0.77 0.00 93 1012.2
20260510081601 73 0 0.0 0.0 0.00 0.77 0.00 93 1012.1
20260510080100 74 0 0.0 0.0 0.00 0.77 0.00 92 1012.0
20260510074602 74 0 0.0 2.0 0.00 0.77 0.00 92 1011.8
20260510073105 74 163 0.0 3.0 0.00 0.77 0.00 92 1012.0
20260510071601 74 0 0.0 0.0 0.00 0.77 0.00 92 1012.0
20260510070100 74 0 0.0 5.0 0.00 0.77 0.00 91 1011.9
20260510064602 74 163 0.0 3.0 0.00 0.77 0.00 90 1012.0
20260510063100 74 0 0.0 3.0 0.00 0.77 0.00 90 1012.0
20260510061559 74 0 0.0 0.0 0.00 0.77 0.00 90 1012.2
20260510054607 74 0 0.0 5.0 0.00 0.77 0.00 90 1012.4
20260510053102 74 0 0.0 3.0 0.00 0.77 0.00 90 1012.3
20260510051603 74 0 0.0 3.0 0.00 0.77 0.00 89 1012.4
20260510050059 73 0 0.0 2.0 0.00 0.77 0.00 89 1012.4
20260510044559 73 0 0.0 0.0 0.00 0.77 0.77 88 1012.5
20260510043105 73 0 0.0 0.0 0.00 0.77 0.77 87 1012.7
20260510041559 74 0 0.0 1.0 0.00 0.77 0.77 86 1012.5
20260510040058 74 0 0.0 0.0 0.00 0.77 0.77 86 1012.5
20260510034600 73 163 0.0 1.0 0.00 0.77 0.77 87 1012.7
20260510033113 72 0 0.0 0.0 0.00 0.77 0.77 90 1012.8
20260510031558 71 0 0.0 2.0 0.00 0.77 0.77 92 1012.7
20260510030104 71 0 0.0 0.0 0.00 0.77 0.77 93 1012.3
20260510024609 71 0 0.0 0.0 0.00 0.77 0.77 93 1011.7
20260510023100 71 0 0.0 0.0 0.00 0.77 0.77 92 1011.5
20260510021600 71 0 0.0 0.0 0.00 0.77 0.77 92 1011.0
20260510020059 71 0 0.0 4.0 0.00 0.77 0.77 92 1010.5
20260510014557 71 0 0.0 0.0 0.00 0.77 0.77 92 1010.0
20260510013057 71 0 0.0 0.0 0.00 0.77 0.77 92 1009.8
20260510011559 71 0 0.0 0.0 0.00 0.77 0.77 91 1009.7
20260510004601 70 0 0.0 0.0 0.38 0.77 0.77 88 1009.3
20260510003059 70 0 0.0 5.0 0.71 0.77 0.77 86 1009.5
20260510001601 69 163 0.0 1.0 0.77 0.77 0.77 88 1010.2
20260510000103 70 163 0.0 3.0 0.73 0.73 0.73 82 1010.7
20260509234559 72 165 1.0 10.0 0.39 0.39 0.39 77 1010.6
20260509233100 78 167 2.0 11.0 0.06 0.06 0.06 66 1009.5
20260509231601 86 165 2.0 6.0 0.00 0.00 0.00 66 1009.1
20260509230100 87 165 1.0 2.0 0.00 0.00 0.00 62 1008.9
20260509224559 87 0 0.0 0.0 0.00 0.00 0.00 60 1008.7
20260509223103 88 0 0.0 0.0 0.00 0.00 0.00 60 1008.6
20260509221600 88 165 1.0 4.0 0.00 0.00 0.00 60 1008.4
20260509220104 88 165 1.0 4.0 0.00 0.00 0.00 60 1008.6
20260509214628 90 165 0.0 2.0 0.00 0.00 0.00 59 1008.6
20260509213103 90 0 1.0 3.0 0.00 0.00 0.00 59 1008.6
20260509211605 90 165 2.0 5.0 0.00 0.00 0.00 59 1008.6
20260509210109 90 165 0.0 2.0 0.00 0.00 0.00 58 1008.9
20260509204600 90 0 0.0 3.0 0.00 0.00 0.00 58 1009.2
20260509203115 90 165 1.0 4.0 0.00 0.00 0.00 57 1009.3
20260509201600 91 165 0.0 4.0 0.00 0.00 0.00 56 1009.4
20260509200100 90 165 1.0 3.0 0.00 0.00 0.00 58 1009.6
20260509194600 90 165 1.0 4.0 0.00 0.00 0.00 56 1009.7
20260509193104 90 165 1.0 3.0 0.00 0.00 0.00 57 1009.8
20260509191633 88 165 0.0 3.0 0.00 0.00 0.00 61 1009.8
20260509190100 88 0 0.0 2.0 0.00 0.00 0.00 64 1009.9
20260509184602 88 0 0.0 1.0 0.00 0.01 0.00 63 1010.1
20260509183101 87 0 0.0 3.0 0.00 0.01 0.00 65 1010.4
20260509181604 87 165 2.0 4.0 0.00 0.01 0.00 63 1010.4
20260509180109 87 165 0.0 6.0 0.00 0.01 0.00 65 1010.8
20260509174621 87 0 1.0 5.0 0.00 0.03 0.00 65 1011.1
20260509173100 85 165 2.0 5.0 0.00 0.03 0.00 68 1011.2
20260509171606 84 0 0.0 4.0 0.00 0.03 0.00 76 1011.5
20260509170107 82 165 1.0 3.0 0.00 0.03 0.00 79 1011.7
20260509164600 81 0 1.0 3.0 0.00 0.03 0.00 82 1011.6